TimeMDT,TemperatureF,Dew PointF,Humidity,Sea Level PressureIn,VisibilityMPH,Wind Direction,Wind SpeedMPH,Gust SpeedMPH,PrecipitationIn,Events,Conditions,WindDirDegrees,DateUTC
12:15 AM,71.6,32.0,23,30.14,10.0,Calm,Calm,-,N/A,,Clear,0,2013-08-18 06:15:00
12:35 AM,71.6,32.0,23,30.14,10.0,Calm,Calm,-,N/A,,Clear,0,2013-08-18 06:35:00
12:55 AM,73.4,30.2,20,30.15,10.0,Calm,Calm,-,N/A,,Clear,0,2013-08-18 06:55:00
1:15 AM,73.4,32.0,22,30.14,10.0,WNW,3.5,-,N/A,,Clear,290,2013-08-18 07:15:00
1:35 AM,71.6,33.8,25,30.14,10.0,NNW,8.1,-,N/A,,Clear,340,2013-08-18 07:35:00
1:55 AM,69.8,44.6,40,30.14,10.0,NNW,9.2,-,N/A,,Clear,330,2013-08-18 07:55:00
2:15 AM,69.8,44.6,40,30.14,10.0,NNW,11.5,-,N/A,,Clear,330,2013-08-18 08:15:00
2:34 AM,68.0,50.0,52,30.14,10.0,North,10.4,-,N/A,,Clear,360,2013-08-18 08:34:00
2:55 AM,68.0,51.8,56,30.13,10.0,North,9.2,-,N/A,,Clear,350,2013-08-18 08:55:00
3:15 AM,68.0,51.8,56,30.13,10.0,NNW,9.2,-,N/A,,Clear,340,2013-08-18 09:15:00
3:35 AM,64.4,51.8,64,30.14,10.0,Calm,Calm,-,N/A,,Clear,0,2013-08-18 09:35:00
3:54 AM,66.2,53.6,64,30.13,10.0,North,6.9,-,N/A,,Clear,10,2013-08-18 09:54:00
4:15 AM,64.4,53.6,68,30.14,10.0,NNE,3.5,-,N/A,,Clear,30,2013-08-18 10:15:00
4:35 AM,64.4,53.6,68,30.14,10.0,Calm,Calm,-,N/A,,Clear,0,2013-08-18 10:35:00
4:55 AM,64.4,53.6,68,30.15,10.0,Calm,Calm,-,N/A,,Clear,0,2013-08-18 10:55:00
5:15 AM,62.6,53.6,72,30.15,10.0,Calm,Calm,-,N/A,,Clear,0,2013-08-18 11:15:00
5:35 AM,62.6,53.6,72,30.15,10.0,Calm,Calm,-,N/A,,Clear,0,2013-08-18 11:35:00
5:47 AM,62.6,55.4,77,30.15,30.0,Calm,Calm,-,N/A,,Partly Cloudy,0,2013-08-18 11:47:00
5:54 AM,60.8,53.6,77,30.15,10.0,WNW,3.5,-,N/A,,Clear,290,2013-08-18 11:54:00
6:55 AM,64.4,44.6,49,30.16,30.0,Calm,Calm,-,N/A,,Partly Cloudy,0,2013-08-18 12:55:00
7:47 AM,66.2,48.2,52,30.17,30.0,South,3.5,-,N/A,,Partly Cloudy,180,2013-08-18 13:47:00
8:51 AM,73.4,51.8,47,30.17,30.0,Variable,3.5,-,N/A,,Partly Cloudy,0,2013-08-18 14:51:00
9:55 AM,80.6,50.0,34,30.17,30.0,Variable,3.5,-,N/A,,Partly Cloudy,0,2013-08-18 15:55:00
10:55 AM,86.0,41.0,20,30.17,30.0,Variable,3.5,-,N/A,,Partly Cloudy,0,2013-08-18 16:55:00
11:47 AM,89.6,33.8,14,30.16,30.0,ESE,5.8,-,N/A,,Scattered Clouds,120,2013-08-18 17:47:00
1:50 PM,87.8,24.8,10,30.16,30.0,SE,8.1,20.7,N/A,,Mostly Cloudy,130,2013-08-18 19:50:00
2:47 PM,89.6,26.6,10,30.15,30.0,WNW,6.9,-,N/A,,Mostly Cloudy,300,2013-08-18 20:47:00
3:45 PM,89.6,28.4,11,30.15,30.0,NW,10.4,-,N/A,,Mostly Cloudy,320,2013-08-18 21:45:00
4:47 PM,86.0,35.6,17,30.15,30.0,North,9.2,-,N/A,,Overcast,360,2013-08-18 22:47:00
5:55 PM,82.4,37.4,20,30.20,30.0,NNW,18.4,-,N/A,,Mostly Cloudy,340,2013-08-18 23:55:00
6:50 PM,80.6,39.2,23,30.19,30.0,North,4.6,-,N/A,,Mostly Cloudy,350,2013-08-19 00:50:00
7:50 PM,77.0,39.2,26,30.19,30.0,West,5.8,-,N/A,,Mostly Cloudy,280,2013-08-19 01:50:00
8:50 PM,75.2,41.0,29,30.20,30.0,Calm,Calm,-,N/A,,Mostly Cloudy,0,2013-08-19 02:50:00
9:47 PM,75.2,41.0,29,30.23,30.0,Calm,Calm,-,N/A,,Mostly Cloudy,0,2013-08-19 03:47:00
11:15 PM,68.0,41.0,37,30.21,10.0,WSW,6.9,-,N/A,,Clear,240,2013-08-19 05:15:00
11:35 PM,69.8,39.2,33,30.21,10.0,West,5.8,-,N/A,,Clear,270,2013-08-19 05:35:00
11:55 PM,69.8,39.2,33,30.21,10.0,WSW,4.6,-,N/A,,Clear,240,2013-08-19 05:55:00